Airfield :
LOGIN :

Register | Disclaimer

   EN    FR    IT 

 










Legend :    VFR   Marginal VFR   IFR   Intensive IFR   Very Intensive IFR
Visi :
Ceiling :
>= 8 km
>= 3000ft
5 to 8 km
1000 to 3000 ft
1500m to 5 km
500 to 1000 ft
800 to 1500m
200 to 500 ft
< 800m
< 200 ft
Symbols :   Thunderstorms  Fog  Heavy snow  Heavy precipitations  Wind > 20 kt
SIGMETs :     Misc.  Thunderstorms  Icing  Turbulence  Mountain Waves  Volcanic Ashes







- Airport Elevation : 22 ft
- IATA code : TUN


DTTA - Tunis Carthage

CURRENT METAR :
  • 221200Z 04008KT 350V100 9999 FEW026 24/09 Q1017

EXPIRED METARs :
  • 221130Z 04007KT 010V080 9999 FEW026 25/08 Q1017
  • 221100Z 04006KT 330V080 9999 FEW026 24/10 Q1017
  • 221030Z 03006KT 320V080 9999 FEW026 22/10 Q1017
  • 221000Z VRB04KT 9999 FEW026 23/12 Q1018
  • 220930Z 04005KT 010V090 9999 FEW026 23/13 Q1017

TAF TAF DTTA
Valid from the 22 at 12:00 until the 23 at 12:00 UTC


221100Z 2212/2312 03006KT 9999 FEW030
PROB30
TEMPO 2214/2218 4000 -SHRA FEW023TCU
No reported NOTAMs for that airfield.



MET'MAP, your aeronautical weather chart ! - Copyright ORBIFLY December 2007 - Disclaimer

ORBIFLY MET'MAP TEAM :

Programming & Development : Alexandra Zaïnal
Concept & Development : Baudouin d'Aumeries
Co-Development & Prog : Marc-Olivier Méhu
Technical & hardware support : Manuel Goepfert

Contact : metmap@orbifly.com




SOURCES & CREDITS :

   NOAA